| time (UTC) | temp C | wind direction | speed KPH | gust KPH | rain 1hr cm | rain 24hr cm | rain mn cm | humidity % | barometer mb |
| 20260505085008 | 10 | 104 | 0.0 | 0.0 | 0.00 | 0.00 | 0.00 | 86 | 1007.1 |
| 20260505084016 | 10 | 104 | 0.0 | 0.0 | 0.00 | 0.00 | 0.00 | 85 | 1007.0 |
| 20260505083535 | 10 | 104 | 0.0 | 0.0 | 0.00 | 0.00 | 0.00 | 85 | 1007.0 |
| 20260505083004 | 10 | 104 | 0.0 | 0.0 | 0.00 | 0.00 | 0.00 | 86 | 1007.0 |
| 20260505082530 | 10 | 104 | 0.0 | 0.0 | 0.00 | 0.00 | 0.00 | 85 | 1007.1 |
| 20260505082007 | 10 | 104 | 0.0 | 0.0 | 0.00 | 0.00 | 0.00 | 85 | 1007.1 |
| 20260505081443 | 10 | 104 | 12.9 | 0.0 | 0.00 | 0.00 | 0.00 | 85 | 1007.1 |
| 20260505081034 | 11 | 104 | 22.5 | 0.0 | 0.00 | 0.00 | 0.00 | 84 | 1007.2 |
| 20260505080444 | 11 | 232 | 24.1 | 0.0 | 0.00 | 0.00 | 0.00 | 81 | 1007.1 |
| 20260505075946 | 11 | 227 | 22.5 | 0.0 | 0.00 | 0.00 | 0.00 | 80 | 1007.1 |
| 20260505075524 | 11 | 228 | 22.5 | 0.0 | 0.00 | 0.00 | 0.00 | 80 | 1007.2 |
| 20260505075012 | 11 | 227 | 20.9 | 0.0 | 0.00 | 0.00 | 0.00 | 81 | 1007.2 |
| 20260505074455 | 11 | 224 | 19.3 | 0.0 | 0.00 | 0.00 | 0.00 | 81 | 1007.2 |
| 20260505073939 | 10 | 211 | 19.3 | 0.0 | 0.00 | 0.00 | 0.00 | 80 | 1007.2 |
| 20260505073439 | 10 | 232 | 19.3 | 0.0 | 0.00 | 0.00 | 0.00 | 80 | 1007.2 |
| 20260505073025 | 10 | 204 | 19.3 | 0.0 | 0.00 | 0.00 | 0.00 | 80 | 1007.2 |
| 20260505072458 | 11 | 223 | 19.3 | 0.0 | 0.00 | 0.00 | 0.00 | 80 | 1007.3 |
| 20260505071932 | 11 | 215 | 19.3 | 0.0 | 0.00 | 0.00 | 0.00 | 80 | 1007.3 |
| 20260505071515 | 11 | 218 | 17.7 | 0.0 | 0.00 | 0.00 | 0.00 | 80 | 1007.3 |
| 20260505071008 | 11 | 230 | 19.3 | 0.0 | 0.00 | 0.00 | 0.00 | 79 | 1007.3 |
| 20260505070529 | 11 | 213 | 20.9 | 0.0 | 0.00 | 0.00 | 0.00 | 78 | 1007.3 |
| 20260505070034 | 11 | 223 | 20.9 | 0.0 | 0.00 | 0.00 | 0.00 | 78 | 1007.3 |
| 20260505065447 | 11 | 217 | 19.3 | 0.0 | 0.00 | 0.00 | 0.00 | 79 | 1007.3 |
| 20260505065024 | 11 | 209 | 17.7 | 0.0 | 0.00 | 0.00 | 0.00 | 79 | 1007.3 |
| 20260505064521 | 11 | 210 | 17.7 | 0.0 | 0.00 | 0.00 | 0.00 | 79 | 1007.3 |
| 20260505063952 | 11 | 209 | 19.3 | 0.0 | 0.00 | 0.00 | 0.00 | 78 | 1007.3 |
| 20260505063525 | 11 | 200 | 20.9 | 0.0 | 0.00 | 0.00 | 0.00 | 78 | 1007.3 |
| 20260505062931 | 11 | 204 | 20.9 | 0.0 | 0.00 | 0.00 | 0.00 | 78 | 1007.3 |
| 20260505062436 | 11 | 209 | 20.9 | 0.0 | 0.00 | 0.00 | 0.00 | 78 | 1007.3 |
| 20260505061945 | 11 | 206 | 20.9 | 0.0 | 0.00 | 0.00 | 0.00 | 77 | 1007.3 |
| 20260505061524 | 11 | 207 | 22.5 | 0.0 | 0.00 | 0.00 | 0.00 | 77 | 1007.3 |
| 20260505060955 | 11 | 218 | 22.5 | 0.0 | 0.00 | 0.00 | 0.00 | 76 | 1007.4 |
| 20260505060516 | 11 | 208 | 22.5 | 0.0 | 0.00 | 0.00 | 0.00 | 76 | 1007.4 |
| 20260505055950 | 11 | 211 | 22.5 | 0.0 | 0.00 | 0.00 | 0.00 | 76 | 1007.4 |
| 20260505055437 | 11 | 203 | 24.1 | 0.0 | 0.00 | 0.00 | 0.00 | 76 | 1007.4 |
| 20260505054945 | 11 | 227 | 25.7 | 0.0 | 0.00 | 0.00 | 0.00 | 75 | 1007.4 |
| 20260505054433 | 11 | 225 | 25.7 | 0.0 | 0.00 | 0.00 | 0.00 | 75 | 1007.4 |
| 20260505054003 | 11 | 211 | 24.1 | 0.0 | 0.00 | 0.00 | 0.00 | 75 | 1007.3 |
| 20260505053433 | 11 | 212 | 22.5 | 0.0 | 0.00 | 0.00 | 0.00 | 74 | 1007.3 |
| 20260505052939 | 11 | 235 | 22.5 | 0.0 | 0.00 | 0.00 | 0.00 | 75 | 1007.3 |
| 20260505052449 | 11 | 216 | 22.5 | 0.0 | 0.00 | 0.00 | 0.00 | 74 | 1007.4 |
| 20260505051936 | 11 | 234 | 22.5 | 0.0 | 0.00 | 0.00 | 0.00 | 74 | 1007.4 |
| 20260505051437 | 11 | 223 | 20.9 | 0.0 | 0.00 | 0.00 | 0.00 | 74 | 1007.4 |
| 20260505050951 | 11 | 225 | 24.1 | 0.0 | 0.00 | 0.00 | 0.00 | 74 | 1007.7 |
| 20260505050442 | 11 | 214 | 27.4 | 0.0 | 0.00 | 0.00 | 0.00 | 74 | 1007.7 |
| 20260505041446 | 12 | 236 | 32.2 | 0.0 | 0.00 | 0.00 | 0.00 | 71 | 1007.4 |
| 20260505040944 | 12 | 228 | 32.2 | 0.0 | 0.00 | 0.00 | 0.00 | 71 | 1007.3 |
| 20260505040451 | 12 | 224 | 29.0 | 0.0 | 0.00 | 0.00 | 0.00 | 71 | 1007.3 |
| 20260505035936 | 12 | 220 | 30.6 | 0.0 | 0.00 | 0.00 | 0.00 | 71 | 1007.3 |
| 20260505035516 | 12 | 213 | 30.6 | 0.0 | 0.00 | 0.00 | 0.00 | 70 | 1007.2 |
| 20260505034951 | 12 | 216 | 30.6 | 0.0 | 0.00 | 0.00 | 0.00 | 70 | 1007.2 |
| 20260505034531 | 12 | 212 | 32.2 | 0.0 | 0.00 | 0.00 | 0.00 | 70 | 1007.2 |
| 20260505033953 | 12 | 200 | 32.2 | 0.0 | 0.00 | 0.00 | 0.00 | 69 | 1007.2 |
| 20260505033520 | 12 | 221 | 30.6 | 0.0 | 0.00 | 0.00 | 0.00 | 70 | 1007.2 |
| 20260505033004 | 12 | 213 | 30.6 | 0.0 | 0.00 | 0.00 | 0.00 | 70 | 1007.2 |
| 20260505032013 | 12 | 223 | 32.2 | 0.0 | 0.00 | 0.00 | 0.00 | 69 | 1007.3 |
| 20260505031457 | 12 | 221 | 32.2 | 0.0 | 0.00 | 0.00 | 0.00 | 69 | 1007.3 |
| 20260505030934 | 12 | 206 | 32.2 | 0.0 | 0.00 | 0.00 | 0.00 | 69 | 1007.4 |
| 20260505030510 | 12 | 237 | 33.8 | 0.0 | 0.00 | 0.00 | 0.00 | 70 | 1007.4 |
| 20260505025931 | 12 | 224 | 29.0 | 0.0 | 0.00 | 0.00 | 0.00 | 69 | 1007.3 |
| 20260505025516 | 12 | 211 | 22.5 | 0.0 | 0.00 | 0.00 | 0.00 | 69 | 1007.5 |
| 20260505024958 | 12 | 296 | 20.9 | 0.0 | 0.00 | 0.00 | 0.00 | 69 | 1007.5 |
| 20260505024537 | 12 | 260 | 20.9 | 0.0 | 0.00 | 0.00 | 0.00 | 68 | 1007.5 |
| 20260505023955 | 12 | 226 | 20.9 | 0.0 | 0.00 | 0.00 | 0.00 | 67 | 1007.4 |
| 20260505023438 | 12 | 253 | 24.1 | 0.0 | 0.00 | 0.00 | 0.00 | 67 | 1007.4 |
| 20260505023014 | 12 | 220 | 24.1 | 0.0 | 0.00 | 0.00 | 0.00 | 67 | 1007.4 |
| 20260505022011 | 12 | 237 | 25.7 | 0.0 | 0.00 | 0.00 | 0.00 | 65 | 1007.5 |
| 20260505021442 | 13 | 223 | 29.0 | 0.0 | 0.00 | 0.00 | 0.00 | 64 | 1007.5 |
| 20260505021054 | 12 | 203 | 29.0 | 0.0 | 0.00 | 0.00 | 0.00 | 66 | 1007.4 |
| 20260505020505 | 12 | 232 | 30.6 | 0.0 | 0.00 | 0.00 | 0.00 | 64 | 1007.4 |
| 20260505015945 | 13 | 219 | 29.0 | 0.0 | 0.00 | 0.00 | 0.00 | 64 | 1007.4 |
| 20260505015517 | 13 | 225 | 30.6 | 0.0 | 0.00 | 0.00 | 0.00 | 64 | 1007.3 |
| 20260505014958 | 13 | 212 | 30.6 | 0.0 | 0.00 | 0.00 | 0.00 | 63 | 1007.3 |
| 20260505014523 | 13 | 205 | 30.6 | 0.0 | 0.00 | 0.00 | 0.00 | 62 | 1007.3 |
| 20260505014003 | 13 | 196 | 30.6 | 0.0 | 0.00 | 0.00 | 0.00 | 62 | 1007.1 |
| 20260505013436 | 13 | 221 | 27.4 | 0.0 | 0.00 | 0.00 | 0.00 | 62 | 1007.1 |
| 20260505013017 | 13 | 204 | 24.1 | 0.0 | 0.00 | 0.00 | 0.00 | 62 | 1007.1 |
| 20260505012518 | 13 | 221 | 24.1 | 0.0 | 0.00 | 0.00 | 0.00 | 60 | 1006.9 |
| 20260505011959 | 13 | 229 | 22.5 | 0.0 | 0.00 | 0.00 | 0.00 | 60 | 1006.9 |
| 20260505011445 | 13 | 259 | 22.5 | 0.0 | 0.00 | 0.00 | 0.00 | 61 | 1006.9 |
| 20260505011033 | 13 | 222 | 24.1 | 0.0 | 0.00 | 0.00 | 0.00 | 59 | 1006.7 |
| 20260505010502 | 13 | 219 | 24.1 | 0.0 | 0.00 | 0.00 | 0.00 | 59 | 1006.7 |
| 20260505005938 | 13 | 228 | 27.4 | 0.0 | 0.00 | 0.00 | 0.00 | 58 | 1006.7 |
| 20260505005504 | 13 | 215 | 19.3 | 0.0 | 0.00 | 0.00 | 0.00 | 57 | 1006.4 |
| 20260505005025 | 13 | 247 | 8.0 | 0.0 | 0.00 | 0.00 | 0.00 | 57 | 1006.4 |
| 20260505004527 | 13 | 105 | 0.0 | 0.0 | 0.00 | 0.00 | 0.00 | 62 | 1006.4 |
| 20260505004005 | 14 | 105 | 0.0 | 0.0 | 0.00 | 0.00 | 0.00 | 63 | 1006.0 |
| 20260505003453 | 14 | 105 | 0.0 | 0.0 | 0.00 | 0.00 | 0.00 | 61 | 1006.0 |
| 20260505002953 | 14 | 105 | 0.0 | 0.0 | 0.00 | 0.00 | 0.00 | 60 | 1006.0 |
| 20260505002517 | 14 | 105 | 0.0 | 0.0 | 0.00 | 0.00 | 0.00 | 58 | 1005.6 |
| 20260505001451 | 15 | 104 | 0.0 | 0.0 | 0.00 | 0.00 | 0.00 | 57 | 1005.6 |
| 20260505000943 | 15 | 104 | 0.0 | 0.0 | 0.00 | 0.00 | 0.00 | 57 | 1005.4 |
| 20260505000530 | 15 | 105 | 0.0 | 0.0 | 0.00 | 0.00 | 0.00 | 57 | 1005.4 |
| 20260505000002 | 15 | 104 | 0.0 | 0.0 | 0.00 | 0.00 | 0.00 | 56 | 1005.4 |
| 20260504235447 | 15 | 105 | 0.0 | 0.0 | 0.00 | 0.00 | 0.00 | 54 | 1005.1 |
| 20260504235027 | 15 | 105 | 0.0 | 0.0 | 0.00 | 0.00 | 0.00 | 55 | 1005.1 |
| 20260504234510 | 15 | 105 | 0.0 | 0.0 | 0.00 | 0.00 | 0.00 | 58 | 1005.1 |
| 20260504233947 | 16 | 104 | 0.0 | 0.0 | 0.00 | 0.00 | 0.00 | 56 | 1004.9 |
| 20260504233520 | 16 | 105 | 0.0 | 0.0 | 0.00 | 0.00 | 0.00 | 55 | 1004.9 |
| 20260504232944 | 16 | 105 | 0.0 | 0.0 | 0.00 | 0.00 | 0.00 | 55 | 1004.9 |
| 20260504232508 | 16 | 104 | 0.0 | 0.0 | 0.00 | 0.00 | 0.00 | 52 | 1004.6 |
| 20260504231945 | 16 | 105 | 0.0 | 0.0 | 0.00 | 0.00 | 0.00 | 51 | 1004.6 |
| 20260504231525 | 16 | 105 | 0.0 | 0.0 | 0.00 | 0.00 | 0.00 | 54 | 1004.6 |
| 20260504231009 | 16 | 104 | 0.0 | 0.0 | 0.00 | 0.00 | 0.00 | 53 | 1004.2 |
| 20260504230433 | 16 | 105 | 0.0 | 0.0 | 0.00 | 0.00 | 0.00 | 53 | 1004.2 |
| 20260504230046 | 16 | 105 | 0.0 | 0.0 | 0.00 | 0.00 | 0.00 | 53 | 1004.2 |
| 20260504225513 | 17 | 104 | 0.0 | 0.0 | 0.00 | 0.00 | 0.00 | 52 | 1004.0 |
| 20260504224937 | 17 | 104 | 0.0 | 0.0 | 0.00 | 0.00 | 0.00 | 52 | 1004.0 |
| 20260504224531 | 17 | 105 | 0.0 | 0.0 | 0.00 | 0.00 | 0.00 | 51 | 1004.0 |
| 20260504224025 | 17 | 105 | 0.0 | 0.0 | 0.00 | 0.00 | 0.00 | 53 | 1003.8 |
| 20260504223503 | 16 | 104 | 0.0 | 0.0 | 0.00 | 0.00 | 0.00 | 55 | 1003.8 |
| 20260504222933 | 17 | 104 | 0.0 | 0.0 | 0.00 | 0.00 | 0.00 | 54 | 1003.8 |
| 20260504222527 | 17 | 105 | 0.0 | 0.0 | 0.00 | 0.00 | 0.00 | 52 | 1003.7 |
| 20260504222006 | 17 | 104 | 0.0 | 0.0 | 0.00 | 0.00 | 0.00 | 51 | 1003.7 |
| 20260504221527 | 17 | 104 | 0.0 | 0.0 | 0.00 | 0.00 | 0.00 | 50 | 1003.7 |
| 20260504220956 | 17 | 105 | 0.0 | 0.0 | 0.00 | 0.00 | 0.00 | 50 | 1003.6 |
| 20260504220002 | 17 | 104 | 0.0 | 0.0 | 0.00 | 0.00 | 0.00 | 49 | 1003.6 |
| 20260504215440 | 17 | 103 | 0.0 | 0.0 | 0.00 | 0.00 | 0.00 | 52 | 1003.6 |
| 20260504215019 | 17 | 104 | 0.0 | 0.0 | 0.00 | 0.00 | 0.00 | 51 | 1003.6 |
| 20260504214449 | 17 | 104 | 0.0 | 0.0 | 0.00 | 0.00 | 0.00 | 48 | 1003.6 |
| 20260504214015 | 17 | 104 | 0.0 | 0.0 | 0.00 | 0.00 | 0.00 | 48 | 1003.6 |
| 20260504213440 | 17 | 104 | 0.0 | 0.0 | 0.00 | 0.00 | 0.00 | 47 | 1003.6 |
| 20260504213013 | 17 | 104 | 0.0 | 0.0 | 0.00 | 0.00 | 0.00 | 50 | 1003.6 |
| 20260504212439 | 17 | 103 | 0.0 | 0.0 | 0.00 | 0.00 | 0.00 | 47 | 1003.6 |
| 20260504212011 | 17 | 104 | 0.0 | 0.0 | 0.00 | 0.00 | 0.00 | 47 | 1003.6 |
| 20260504211439 | 18 | 103 | 22.5 | 0.0 | 0.00 | 0.00 | 0.00 | 46 | 1003.6 |
| 20260504211028 | 17 | 216 | 30.6 | 0.0 | 0.00 | 0.00 | 0.00 | 41 | 1003.6 |
| 20260504210502 | 17 | 230 | 32.2 | 0.0 | 0.00 | 0.00 | 0.00 | 41 | 1003.6 |
| 20260504210023 | 17 | 224 | 29.0 | 0.0 | 0.00 | 0.00 | 0.00 | 37 | 1003.6 |
| 20260504205517 | 17 | 219 | 24.1 | 0.0 | 0.00 | 0.00 | 0.00 | 41 | 1003.6 |
| 20260504205031 | 18 | 235 | 22.5 | 0.0 | 0.00 | 0.00 | 0.00 | 42 | 1003.6 |
| 20260504204451 | 18 | 233 | 27.4 | 0.0 | 0.00 | 0.00 | 0.00 | 36 | 1003.6 |
| 20260504203943 | 17 | 237 | 32.2 | 0.0 | 0.00 | 0.00 | 0.00 | 43 | 1003.6 |
| 20260504203524 | 18 | 223 | 32.2 | 0.0 | 0.00 | 0.00 | 0.00 | 38 | 1003.6 |
| 20260504203011 | 17 | 225 | 32.2 | 0.0 | 0.00 | 0.00 | 0.00 | 38 | 1003.6 |
| 20260504202448 | 17 | 222 | 32.2 | 0.0 | 0.00 | 0.00 | 0.00 | 39 | 1003.7 |
| 20260504202045 | 18 | 234 | 30.6 | 0.0 | 0.00 | 0.00 | 0.00 | 39 | 1003.7 |
| 20260504201509 | 18 | 223 | 32.2 | 0.0 | 0.00 | 0.00 | 0.00 | 33 | 1003.7 |
| 20260504201030 | 18 | 247 | 32.2 | 0.0 | 0.00 | 0.00 | 0.00 | 35 | 1003.8 |
| 20260504200507 | 18 | 231 | 32.2 | 0.0 | 0.00 | 0.00 | 0.00 | 36 | 1003.8 |
| 20260504195952 | 18 | 259 | 29.0 | 0.0 | 0.00 | 0.00 | 0.00 | 39 | 1003.8 |
| 20260504195526 | 18 | 226 | 27.4 | 0.0 | 0.00 | 0.00 | 0.00 | 33 | 1003.8 |
| 20260504194935 | 18 | 237 | 27.4 | 0.0 | 0.00 | 0.00 | 0.00 | 33 | 1003.8 |
| 20260504194457 | 17 | 251 | 25.7 | 0.0 | 0.00 | 0.00 | 0.00 | 36 | 1003.8 |
| 20260504193939 | 18 | 236 | 27.4 | 0.0 | 0.00 | 0.00 | 0.00 | 39 | 1003.6 |
| 20260504193528 | 18 | 337 | 29.0 | 0.0 | 0.00 | 0.00 | 0.00 | 36 | 1003.6 |
| 20260504192959 | 17 | 231 | 27.4 | 0.0 | 0.00 | 0.00 | 0.00 | 39 | 1003.6 |
| 20260504192532 | 17 | 230 | 29.0 | 0.0 | 0.00 | 0.00 | 0.00 | 37 | 1003.8 |
| 20260504192004 | 18 | 244 | 29.0 | 0.0 | 0.00 | 0.00 | 0.00 | 38 | 1003.8 |
| 20260504191527 | 18 | 218 | 30.6 | 0.0 | 0.00 | 0.00 | 0.00 | 34 | 1003.8 |
| 20260504190453 | 17 | 231 | 33.8 | 0.0 | 0.00 | 0.00 | 0.00 | 36 | 1003.9 |
| 20260504185931 | 18 | 185 | 24.1 | 0.0 | 0.00 | 0.00 | 0.00 | 35 | 1003.9 |
| 20260504185527 | 18 | 255 | 11.3 | 0.0 | 0.00 | 0.00 | 0.00 | 38 | 1004.0 |
| 20260504184947 | 18 | 103 | 0.0 | 0.0 | 0.00 | 0.00 | 0.00 | 36 | 1004.0 |
| 20260504184431 | 18 | 104 | 0.0 | 0.0 | 0.00 | 0.00 | 0.00 | 38 | 1004.0 |
| 20260504184010 | 17 | 104 | 0.0 | 0.0 | 0.00 | 0.00 | 0.00 | 34 | 1004.1 |
| 20260504183454 | 17 | 104 | 0.0 | 0.0 | 0.00 | 0.00 | 0.00 | 43 | 1004.1 |